Regional Weather Roundup
Issued by NWS Kansas City/Pleasant Hill, MO

Home | Current Version | Previous Version | Graphics & Text | Print | Product List | Glossary Off
Versions: 1 2 3 4 5 6 7 8 9 10 11 12 13 14 15 16 17 18 19 20 21 22 23 24 25 26 27 28 29 30 31 32 33 34 35 36 37 38 39 40 41 42 43 44 45 46 47 48 49 50

000
ASUS43 KEAX 140110
RWREAX

WEATHER ROUNDUP FOR EASTERN KANSAS AND NORTHWEST MISSOURI
NATIONAL WEATHER SERVICE KANSAS CITY/PLEASANT HILL MO
800 PM CDT SUN JUL 13 2014

KSZ040-057-103>105-MOZ028-029-037-043-140200-
...KANSAS CITY METROPOLITAN AREA...

CITY           SKY/WX    TMP DP  RH WIND       PRES   REMARKS
K.C. INTL      PTCLDY    83  69  62 N3        29.99R
K.C. DOWNTOWN  PTCLDY    84  67  56 NE8       29.97R
LEES SUMMIT    PTCLDY    81  69  67 N8        29.99R
OLATHE - IXD   PTCLDY    81  69  67 N9        29.99R
OLATHE - OJC   PTCLDY    83  68  60 N7        29.98R
LAWRENCE       CLEAR     84  71  65 CALM      29.98R

$$

MOZ001>008-011>017-020>025-030>033-038>040-044>046-053-054-140200-
...NORTHERN AND CENTRAL MISSOURI...

CITY           SKY/WX    TMP DP  RH WIND       PRES   REMARKS
ST. JOSEPH     CLEAR     82  72  71 NW3       29.97R
MOSBY          CLEAR     82  68  61 CALM      29.97R
WHITEMAN AFB   MOCLDY    75  69  80 CALM      29.97S
CLINTON        MOCLDY    81  75  83 CALM      29.97S
SEDALIA        MOCLDY    75  73  93 N3        29.98F
WARSAW         NOT AVBL
MARSHALL         N/A     79  77  94 SW3       29.97F FOG
CHILLICOTHE      N/A     82  71  69 CALM      29.97R
MOBERLY        PTCLDY    82  70  65 SW6       29.96F
KIRKSVILLE     CLEAR     82  73  74 CALM      29.96F

$$

MOZ041-047>049-056>058-063>065-088>090-097-140200-
...EASTERN AND SOUTHERN MISSOURI...

CITY           SKY/WX    TMP DP  RH WIND       PRES   REMARKS
ST. LOUIS INTL CLOUDY    80  73  79 NW6       29.94F
SPIRIT OF STL  MOCLDY    77  73  87 CALM      29.92F
COLUMBIA       LGT RAIN  74  73  97 N5        29.96F FOG
JEFFERSON CITY MOCLDY    78  75  90 N3        29.94S
HANNIBAL       MOCLDY    81  70  69 CALM      29.96R
ROLLA          MOCLDY    79  71  76 N6        29.95F
LEBANON        MOCLDY    81  70  69 N3        29.97F
OSAGE BEACH    MOCLDY    81  72  74 NE6       29.95F
SPRINGFIELD    MOCLDY    84  74  71 NW5       29.96S HX  91
BRANSON        PTCLDY    88  72  58 S7        29.99S HX  94
NEVADA         CLOUDY    77  72  83 E3        29.98S
JOPLIN         PTCLDY    86  71  60 NE3       29.95S HX  91
WEST PLAINS    PTCLDY    83  71  67 S6        29.98F
MALDEN         CLEAR     90  73  58 SW8       29.95S HX  98

$$

IAZ060-094-KSZ022-034>040-054-083-096-NEZ052-066-093-140200-
...KANSAS...SOUTHEAST NEBRASKA AND IOWA...

CITY           SKY/WX    TMP DP  RH WIND       PRES   REMARKS
TOPEKA         CLEAR     85  69  58 CALM      29.98S
MANHATTAN      CLEAR     86  67  52 CALM      29.99R
EMPORIA        PTCLDY    83  68  60 VRB3      30.00R
CHANUTE        PTCLDY    84  70  62 N6        29.97R
WICHITA        MOCLDY    84  68  58 NE8       29.99F
OMAHA          MOCLDY    83  66  56 W3        29.97S
LINCOLN        PTCLDY    83  70  64 W6        30.00S
FALLS CITY     CLEAR     84  71  65 CALM      29.97R
LAMONI         CLEAR     82  70  66 W3        29.96S
DES MOINES     PTCLDY    82  61  48 NW6       29.94S

$$




USA.gov is the U.S. government's official web portal to all federal, state and local government web resources and services.